DW7764 Weather Reports


time (UTC)temp
C
wind
direction
speed
KPH
gust
KPH
rain 1hr
cm
rain 24hr
cm
rain mn
cm
humidity
%
barometer
mb
20260507201551 12 131 0.0 0.0 0.00 0.00 0.00 90 1019.1
20260507200103 13 131 0.0 0.0 0.00 0.00 0.00 89 1018.9
20260507194550 13 131 0.0 0.0 0.00 0.00 0.00 88 1018.7
20260507193109 13 131 0.0 0.0 0.00 0.00 0.00 86 1018.4
20260507191556 14 131 0.0 0.0 0.00 0.00 0.00 84 1018.2
20260507190049 15 131 0.0 4.8 0.00 0.00 0.00 81 1018.0
20260507184547 15 119 1.6 4.8 0.00 0.00 0.00 80 1017.7
20260507183057 15 176 0.0 3.2 0.00 0.00 0.00 81 1017.7
20260507181547 15 121 1.6 11.3 0.00 0.00 0.00 79 1017.5
20260507180046 16 121 4.8 11.3 0.00 0.00 0.00 79 1017.4
20260507174545 16 135 3.2 9.7 0.00 0.00 0.00 78 1017.3
20260507173107 16 148 3.2 11.3 0.00 0.00 0.00 75 1017.2
20260507171547 17 205 3.2 12.9 0.00 0.00 0.00 74 1017.1
20260507170048 17 109 4.8 11.3 0.00 0.00 0.00 73 1017.0
20260507164550 17 145 1.6 9.7 0.00 0.00 0.00 71 1017.0
20260507163042 17 217 1.6 9.7 0.00 0.00 0.00 71 1016.9
20260507161547 17 129 4.8 12.9 0.00 0.00 0.00 72 1016.8
20260507160059 17 83 6.4 12.9 0.00 0.00 0.00 71 1016.8
20260507154540 17 167 6.4 17.7 0.00 0.00 0.00 70 1017.0
20260507153039 18 174 4.8 16.1 0.00 0.00 0.00 67 1017.0
20260507151539 18 137 4.8 12.9 0.00 0.00 0.00 66 1016.9
20260507150038 18 158 4.8 14.5 0.00 0.00 0.00 65 1016.9
20260507144545 18 164 3.2 19.3 0.00 0.00 0.00 64 1017.1
20260507143035 18 103 3.2 14.5 0.00 0.00 0.00 66 1017.2
20260507141534 18 128 8.0 14.5 0.00 0.00 0.00 64 1017.3
20260507140035 18 120 4.8 17.7 0.00 0.00 0.00 66 1017.5
20260507134531 18 68 6.4 19.3 0.00 0.00 0.00 65 1017.8
20260507133030 18 88 4.8 25.7 0.00 0.00 0.00 66 1017.8
20260507131531 18 178 6.4 16.1 0.00 0.00 0.00 67 1017.9
20260507130033 18 105 4.8 14.5 0.00 0.00 0.00 68 1017.9
20260507124526 18 128 6.4 22.5 0.00 0.00 0.00 68 1018.2
20260507123032 18 94 6.4 19.3 0.00 0.00 0.00 68 1018.2
20260507121523 18 115 8.0 17.7 0.00 0.00 0.00 68 1018.3
20260507120023 18 232 6.4 20.9 0.00 0.00 0.00 69 1018.3
20260507114521 18 150 4.8 24.1 0.00 0.00 0.00 68 1018.4
20260507113026 18 132 4.8 16.1 0.00 0.00 0.00 70 1018.4
20260507111516 18 81 3.2 19.3 0.00 0.00 0.00 74 1018.5
20260507110014 17 148 6.4 17.7 0.00 0.00 0.00 78 1018.8
20260507104511 16 105 0.0 17.7 0.00 0.00 0.00 94 1018.8
20260507103010 16 106 4.8 14.5 0.00 0.00 0.00 94 1019.0
20260507101515 16 155 3.2 14.5 0.00 0.00 0.00 96 1019.0
20260507100008 16 89 3.2 16.1 0.00 0.00 0.00 97 1019.1
20260507094507 16 108 1.6 14.5 0.00 0.00 0.00 96 1019.2
20260507093009 16 93 6.4 16.1 0.00 0.00 0.00 96 1019.5
20260507091505 15 148 4.8 9.7 0.00 0.00 0.00 96 1019.4
20260507090004 15 133 3.2 8.0 0.00 0.00 0.00 98 1019.1
20260507084601 15 146 0.0 3.2 0.00 0.00 0.00 98 1019.2
20260507083059 15 123 1.6 6.4 0.00 0.00 0.00 99 1019.2
20260507081555 14 293 0.0 1.6 0.00 0.00 0.00 99 1019.4
20260507080052 13 293 0.0 3.2 0.00 0.00 0.00 99 1019.5
20260507074555 12 294 0.0 1.6 0.00 0.00 0.00 100 1019.7
20260507073047 12 294 0.0 0.0 0.00 0.00 0.00 100 1019.7
20260507071544 12 293 0.0 0.0 0.00 0.00 0.00 99 1019.6
20260507070047 11 294 0.0 0.0 0.00 0.00 0.00 99 1019.5
20260507064542 11 295 0.0 0.0 0.00 0.00 0.00 100 1019.3
20260507063037 10 294 0.0 0.0 0.00 0.00 0.00 99 1019.1
20260507061534 10 294 1.6 3.2 0.00 0.00 0.00 99 1019.1
20260507060035 8 293 0.0 0.0 0.00 0.00 0.00 99 1018.9
20260507054534 8 294 0.0 0.0 0.00 0.00 0.00 99 1018.8
20260507053032 8 295 0.0 0.0 0.00 0.00 0.00 99 1018.8
20260507051531 8 295 0.0 0.0 0.00 0.00 0.00 99 1018.5
20260507050037 8 294 0.0 1.6 0.00 0.00 0.00 99 1018.4
20260507044530 8 294 0.0 0.0 0.00 0.00 0.00 99 1018.4
20260507043029 8 294 0.0 0.0 0.00 0.00 0.00 99 1018.4
20260507041543 8 294 0.0 0.0 0.00 0.00 0.00 99 1018.4
20260507040026 8 293 0.0 1.6 0.00 0.00 0.00 99 1018.5
20260507034526 8 293 0.0 1.6 0.00 0.00 0.00 99 1018.3
20260507033022 8 294 0.0 1.6 0.00 0.00 0.00 99 1018.5
20260507031520 9 294 1.6 3.2 0.00 0.00 0.00 98 1018.5
20260507030017 10 293 0.0 0.0 0.00 0.00 0.00 96 1018.6
20260507024516 10 295 0.0 1.6 0.00 0.00 0.00 97 1018.5
20260507023015 10 294 0.0 0.0 0.00 0.00 0.00 95 1018.4
20260507021514 10 293 0.0 0.0 0.00 0.00 0.00 96 1018.4
20260507020014 10 294 0.0 0.0 0.00 0.00 0.00 97 1018.5
20260507014523 10 293 0.0 0.0 0.00 0.03 0.00 97 1018.8
20260507013030 10 293 0.0 0.0 0.00 0.03 0.00 97 1018.7
20260507011523 10 293 0.0 0.0 0.00 0.03 0.00 96 1018.6
20260507010009 10 294 0.0 0.0 0.00 0.03 0.00 96 1018.7
20260507004507 10 293 0.0 0.0 0.00 0.03 0.00 97 1018.9
20260507003005 10 293 0.0 0.0 0.00 0.03 0.00 96 1018.9
20260507001504 10 295 0.0 0.0 0.00 0.03 0.00 96 1019.0
20260507000017 10 293 0.0 0.0 0.00 0.03 0.00 96 1019.0
20260506234503 10 294 0.0 0.0 0.00 0.03 0.00 94 1019.1
20260506233002 10 294 0.0 0.0 0.00 0.03 0.00 94 1019.0
20260506231559 11 294 0.0 1.6 0.00 0.03 0.00 91 1019.1
20260506230059 11 293 0.0 0.0 0.00 0.03 0.00 93 1019.1
20260506224557 11 294 0.0 3.2 0.00 0.03 0.00 93 1019.0
20260506223118 10 152 0.0 0.0 0.00 0.03 0.00 91 1019.0
20260506221557 11 152 0.0 0.0 0.00 0.03 0.00 92 1019.0
20260506220051 11 153 0.0 0.0 0.00 0.03 0.00 91 1018.9
20260506214553 11 152 0.0 0.0 0.00 0.03 0.03 89 1018.8
20260506213049 12 153 0.0 0.0 0.00 0.03 0.03 89 1018.8
20260506211548 12 153 0.0 1.6 0.00 0.03 0.03 90 1018.9
20260506210048 11 152 0.0 0.0 0.00 0.03 0.03 89 1018.8
20260506204546 11 152 0.0 0.0 0.00 0.03 0.03 87 1018.6
20260506203046 12 152 0.0 0.0 0.00 0.03 0.03 85 1018.3